Regional Weather Roundup
Issued by NWS

Home | Current Version | Previous Version | Text Only | Print | Product List | Glossary On
Versions: 1 2 3 4 5 6 7 8 9 10 11 12 13 14 15 16 17 18 19 20 21 22 23 24 25 26 27 28 29 30 31 32 33 34 35 36 37 38 39 40 41 42 43 44 45 46 47 48 49 50
000
ASMX46 KSGX 250211
RWRMX

MEXICAN WEATHER ROUNDUP
NATIONAL WEATHER SERVICE SAN DIEGO CA
700 PM PDT TUE MAY 24 2016

BAJA CALIFORNIA

CITY           SKY/WX    TMP DP  RH WIND       PRES   REMARKS
ENSENADA NW      N/A     62  32  32 W17       30.00F
LA PAZ         MOCLDY    86  55  35 CALM      29.91R
LORETO         MOCLDY    79  61  53 CALM      29.88S
MEXICALI       CLEAR     77  39  25 NW20      29.86S
S.J. DEL CABO  MOCLDY    79  63  57 S6        29.92R
TIJUANA        MOCLDY    63  50  63 W15       30.06S

NORTHWESTERN MEXICO

CITY           SKY/WX    TMP DP  RH WIND       PRES   REMARKS
CHIHUAHUA      CLOUDY    82  34  17 S17G30    30.07R
CULIACAN       CLOUDY    86  72  62 SW7       29.91R
GUAYMAS        PTCLDY    81  66  61 S5        29.84S
HERMOSILLO     MOCLDY    86  41  20 SW7       29.93R
JUAREZ         MOCLDY    84  23  10 W12G23    29.91R BLWGDUST
LOS MOCHIS     CLOUDY    81  54  39 NW8       29.91R
OBREGON        MOCLDY    79  57  47 SW5       29.88R

NORTHEASTERN MEXICO

CITY           SKY/WX    TMP DP  RH WIND       PRES   REMARKS
MATAMOROS      MOCLDY    82  77  83 SE12      29.91R
MONCLOVA         N/A    N/A N/A N/A MISG        N/A
MONTERREY      MOCLDY    86  72  62 SE5       29.90R
NUEVO LAREDO     N/A    N/A N/A N/A MISG        N/A
PIEDRAS NEGRAS   N/A    N/A N/A N/A MISG        N/A
REYNOSA        PTCLDY    81  70  69 E8        29.90R
SALTILLO       MOCLDY    82  59  44 NE9       30.16R
TORREON        MOCLDY    95  39  14 N2        29.96R
VICTORIA         N/A    N/A N/A N/A MISG        N/A

WESTERN MEXICO

CITY           SKY/WX    TMP DP  RH WIND       PRES   REMARKS
AGUASCALIENTES CLEAR     82  19   9 SW5       30.20R
COLIMA         PTCLDY    82  66  57 W6        30.01R
DURANGO        CLOUDY    82  25  12 SW13      30.21R
GUADALAJARA    CLEAR     84  32  15 NW9       30.13R
MANZANILLO     PTCLDY    79  73  83 W7        29.83R
MAZATLAN       MOCLDY    82  70  65 W5        29.88R
PTO. VALLARTA  CLEAR     79  75  89 SW6       29.89R
TEPIC          PTCLDY    73  68  83 N6        30.05
URUAPAN          N/A    N/A N/A N/A MISG        N/A
ZACATECAS      MOCLDY    77  32  19 CALM      30.28R

CENTRAL MEXICO

CITY           SKY/WX    TMP DP  RH WIND       PRES   REMARKS
CUERNAVACA       N/A    N/A N/A N/A MISG        N/A
LEON           PTCLDY    84  34  16 S5        30.24R
MEXICO CITY    TSTM      64  52  63 SW10      30.40R
MORELIA        MOCLDY    75  54  46 S2        30.23R
POZA RICA        N/A    N/A N/A N/A MISG        N/A
PUEBLA         CLOUDY    61  54  77 CALM      30.44R
QUERETARO      MOCLDY    75  48  38 E15       30.29R
S. LUIS POTOSI MOCLDY    81  55  41 E17       30.18R
TAMPICO        MOCLDY    82  79  89 E9        29.89R
TOLUCA         CLOUDY    64  50  59 W3        30.48R
VERACRUZ       PTCLDY    84  81  89 E5        29.87R HX  98

SOUTHERN MEXICO

CITY           SKY/WX    TMP DP  RH WIND       PRES   REMARKS
ACAPULCO       PTCLDY    84  77  79 W7        29.87R
B. DE HUATULCO   N/A    N/A N/A N/A MISG        N/A
MINATITLAN     CLEAR     86  77  74 N12       29.84R HX  97
OAXACA         CLOUDY    72  59  64 CALM      30.25R
PTO. ESCONDIDO   N/A    N/A N/A N/A MISG        N/A
TAPACHULA      MOCLDY    81  75  83 CALM      29.87R
TUX. GUTIERREZ MOCLDY    82  72  69 CALM      29.92R
VILLAHERMOSA   PTCLDY    88  79  74 N5        29.88R HX 102
ZIHUATANEJO    CLEAR     84  73  70 SW6       29.88R

YUCATAN PENINSULA

CITY           SKY/WX    TMP DP  RH WIND       PRES   REMARKS
CAMPECHE       CLEAR     88  82  84 N12G23    29.86R HX 108
CANCUN         CLEAR     82  77  83 E7        30.02R
CHETUMAL       PTCLDY    84  73  70 SE12      29.98R
C. DEL CARMEN    N/A    N/A N/A N/A MISG        N/A
COZUMEL        PTCLDY    79  77  94 E7        30.02R
MERIDA         CLEAR     88  73  62 NE17      29.94R HX  96

$$





USA.gov is the U.S. government's official web portal to all federal, state and local government web resources and services.